Simultaneous Nadir Overpasses (SNOs) Predictions

Prediction of SNOs over PacNW region [( 10.00, 139.50) to ( 22.70, 165.60)] between AQUA and NPP Satellites:

Table of predicted SNOs over PacNW region for the next 30.0 days since TLE Epoch: 3/14/2015
Index Date (AQUA) Time (AQUA) AQUA Lat,Lon Date (NPP) Time (NPP) NPP Lat,Lon Distance(km) Time Diff (sec)
1 03/19/2015 03:28:58 10.08, 150.41 03/19/2015 03:29:30 9.77, 148.85 174.07 32
2 03/27/2015 02:40:06 12.74, 162.25 03/27/2015 02:39:21 12.43, 160.93 146.58 45
3 03/29/2015 16:21:49 10.01, 140.14 03/29/2015 16:18:19 7.20, 139.20 329.31 210
4 04/04/2015 03:28:31 10.07, 150.56 04/04/2015 03:29:08 9.71, 148.88 188.29 37




NCC Satellite Simultaneous Nadir Overpasses (SNOs) Prediction Service
